Weather in Mazar-I-Sharif

Afghanistan     36°43′03″N   67°06′53″E
temp.,
°C
wind,
m/s
gust,
m/s
humid.,
%
clouds,
%
prec.,
mm/h
press.,
hPa
HPBL,
m
8 may, sat
sat801:30+24nnw114547 0.0 101211
04:30+22wsw014811 0.0 101212
07:30+27sw223645 0.0 1014308
10:30+31sse012847 0.0 10131955
13:30+33nne212112 0.0 10102945
16:30+34nne221911 0.0 10093210
19:30+29e222699 0.0 100913
22:30+27sw332613 0.0 101018
9 may, sun
sun901:30+26wsw332689 0.0 100812
04:30+26ssw33305 0.0 100919
07:30+29w66265 0.0 1011522
10:30+30w762291 0.0 10111074
13:30+33w651948 0.0 10091576
16:30+33w321827 0.0 10071801
19:30+29sw4524100 0.0 100751
22:30+28ssw58285 0.0 1007100
10 may, mon
mon1001:30+25sw45345 0.0 100661
04:30+23w464395 0.0 1007103
07:30+26w6840100 0.0 1008585
10:30+30w7731100 0.1 10081344
13:30+31w7726100 0.1 10072076
16:30+31wsw5625100 0.4 10062309
19:30+26ssw91244100 0.1 1008353
22:30+26sw6943100 0.1 1009206
11 may, tue
tue1101:30+24wsw711355 0.0 1009282
04:30+22sw6103889 0.0 1011234
07:30+25sw69330 0.0 10131066
10:30+28wsw89275 0.0 10131946
13:30+30w88185 0.0 10122625
16:30+31wsw78180 0.0 10102788
19:30+27wsw582070 0.0 1011169
22:30+24sw572525 0.0 1011102
12 may, wed
wed1201:30+22sw33325 0.0 101136
04:30+20w113788 0.0 101215
07:30+25wsw46225 0.0 1013683
10:30+29wsw77160 0.0 10121883
13:30+31w66150 0.0 10102473
16:30+31w44190 0.0 10092824
19:30+26wsw451810 0.0 100958
22:30+24sw45153 0.0 100954